This is the latest recevied weather packets stored in our database for station/object KD1KE. If no packets are shown the sender has not sent any weather packets the latest 10 day(s).
| Time | Temp. | Humidity | Pressure | Rain* | Wind** | Luminosity | Snow |
|---|---|---|---|---|---|---|---|
| 1777999179 | 22.22° C | 56% | 1005.5 hPa | 0 mm | - | - | - |
| 1777998851 | 21.67° C | 54% | 1005.6 hPa | 0 mm | - | - | - |
| 1777998638 | 22.22° C | 55% | 1005.6 hPa | 0 mm | - | - | - |
| 1777998190 | 21.67° C | 56% | 1005.8 hPa | 0 mm | - | - | - |
| 1777998099 | 21.67° C | 58% | 1005.8 hPa | 0 mm | - | - | - |
| 1777997529 | 21.67° C | 56% | 1005.9 hPa | 0 mm | - | - | - |
| 1777997019 | 22.22° C | 54% | 1006.3 hPa | 0 mm | - | - | - |
| 1777996870 | 22.22° C | 54% | 1006.3 hPa | 0 mm | - | - | - |
| 1777996478 | 22.22° C | 54% | 1006.4 hPa | 0 mm | - | - | - |
| 1777996209 | 22.22° C | 55% | 1006.4 hPa | 0 mm | - | - | - |
| 1777995938 | 21.67° C | 56% | 1006.4 hPa | 0 mm | - | - | - |
| 1777995550 | 21.67° C | 56% | 1006.4 hPa | 0 mm | - | - | - |
| 1777995398 | 21.11° C | 57% | 1006.3 hPa | 0 mm | - | - | - |
| 1777994889 | 20.56° C | 58% | 1006.4 hPa | 0 mm | - | - | - |
| 1777994863 | 20.56° C | 56% | 1006.4 hPa | 0 mm | - | - | - |
| 1777994319 | 21.11° C | 56% | 1006.4 hPa | 0 mm | - | - | - |
| 1777994230 | 21.11° C | 56% | 1006.4 hPa | 0 mm | - | - | - |
| 1777993778 | 20.56° C | 56% | 1006.4 hPa | 0 mm | - | - | - |
| 1777993569 | 20.56° C | 56% | 1006.4 hPa | 0 mm | - | - | - |
| 1777993237 | 20° C | 56% | 1006.4 hPa | 0 mm | - | - | - |
| 1777992910 | 20° C | 56% | 1006.4 hPa | 0 mm | - | - | - |
| 1777992698 | 20° C | 57% | 1006.4 hPa | 0 mm | - | - | - |
| 1777992249 | 20° C | 56% | 1006.5 hPa | 0 mm | - | - | - |
| 1777992159 | 20° C | 55% | 1006.3 hPa | 0 mm | - | - | - |
| 1777991622 | 20° C | 55% | 1006.4 hPa | 0 mm | - | - | - |
* Rain latest hour (hover to see other rain measurements)
** Current wind speed in m/s (hover to see current wind gust speed)